Theta_e
339 343 345 349 352 352 353 353 352 352 349 346 345 345 343 342 341 340 339 340 340 341 342 346 350 351 351 351 351 351 351 352 351 351 350 351 351 351 351 351 350 348 351
340 343 344 350 352 352 352 352 352 351 350 345 345 344 342 341 340 339 340 340 341 341 342 346 350 351 350 351 351 351 352 351 349 348 346 347 349 351 350 350 350 349 350
336 342 345 347 350 351 351 351 350 350 346 345 345 344 342 341 339 340 341 341 341 342 342 346 350 351 350 350 351 350 351 350 348 345 345 346 347 350 350 349 349 350 350
335 340 344 343 347 348 351 350 350 349 347 345 344 344 342 341 340 342 342 344 343 342 343 347 350 350 349 349 350 349 349 348 346 345 344 343 344 349 350 349 348 349 349
334 339 342 338 343 347 348 349 349 349 348 345 344 343 342 341 342 344 345 348 346 345 344 348 349 349 348 349 349 348 348 346 344 342 341 342 343 347 349 348 347 346 345
333 336 338 336 341 343 346 348 348 348 347 345 343 342 342 343 343 347 347 348 348 347 345 349 348 348 346 347 347 346 345 344 342 341 340 341 341 347 347 346 346 345 344
331 333 336 334 338 342 344 346 347 346 346 345 345 344 345 346 346 346 345 345 347 347 346 349 348 346 345 345 345 344 344 342 339 339 339 342 344 346 346 345 344 345 345
330 331 334 332 335 339 342 346 346 345 345 344 343 344 344 344 345 344 344 344 345 348 349 348 347 345 344 343 342 342 340 336 337 339 341 343 343 345 345 344 343 343 344
329 330 332 336 335 333 338 340 342 342 341 342 342 341 342 342 342 343 343 344 345 348 349 346 345 344 343 342 340 338 334 334 338 339 340 342 340 345 344 343 343 343 342
327 329 330 334 335 338 340 334 335 338 338 338 338 337 335 335 336 337 336 339 344 345 346 344 342 342 341 338 335 333 331 332 338 340 340 340 340 344 344 342 341 340 339
323 325 329 332 335 337 338 337 332 332 333 333 333 330 329 336 337 336 335 336 341 340 341 341 341 339 333 330 330 328 329 335 338 338 338 336 340 342 342 340 337 336 336
314 320 325 329 332 335 336 338 340 339 337 336 335 334 334 334 336 336 329 329 333 333 336 340 338 330 326 326 328 326 331 330 336 336 336 335 339 341 340 336 335 335 334
308 313 318 324 329 330 334 335 337 339 338 337 336 335 334 333 334 336 338 337 338 325 328 330 328 325 324 322 321 321 324 326 334 336 333 334 338 339 339 336 335 333 333
304 306 310 316 323 328 329 332 332 335 337 336 336 335 333 332 333 334 334 334 332 326 322 325 323 322 322 320 320 321 323 326 329 334 331 329 335 337 337 336 334 331 332
303 306 306 310 317 323 328 328 331 330 333 335 334 334 332 330 330 332 331 330 329 325 322 325 320 321 320 320 321 321 322 326 329 330 332 323 330 335 335 334 334 334 332
303 305 308 308 312 318 323 328 327 329 331 333 332 332 331 330 330 330 330 328 329 325 322 321 320 320 318 319 320 321 323 325 325 327 329 329 326 330 334 334 335 334 332
303 305 307 309 312 314 318 323 326 327 327 329 331 330 329 330 330 329 329 327 328 327 323 319 318 319 318 319 321 319 321 321 323 323 327 329 328 323 328 333 331 330 331
301 301 303 308 313 316 316 320 324 324 325 326 329 330 328 328 329 328 326 325 328 324 319 319 319 317 317 319 320 320 319 319 320 321 322 325 328 328 326 329 330 330 328
298 299 300 303 306 310 319 318 319 322 323 324 325 329 327 327 327 327 324 324 324 322 320 317 318 317 315 319 318 318 318 317 317 318 319 320 322 324 326 324 323 323 327
297 297 299 301 303 306 312 320 319 321 321 323 322 323 323 325 324 324 322 320 320 319 316 316 318 319 318 317 314 315 315 316 314 317 316 317 320 320 321 322 322 321 322
297 296 297 299 302 306 307 310 313 314 320 320 321 321 321 320 322 322 320 317 318 316 316 315 316 315 313 313 310 305 306 312 314 313 315 315 315 317 318 320 322 324 323
296 295 296 298 300 305 306 307 309 311 315 320 321 320 320 319 319 320 318 316 316 315 313 313 313 311 310 312 311 308 302 303 305 311 313 312 313 313 313 314 318 319 322
294 294 295 296 299 303 303 303 304 307 310 313 318 318 318 319 317 318 317 316 315 315 314 313 312 311 309 311 313 310 304 303 302 301 307 310 310 312 309 311 312 314 315
293 295 294 295 298 302 303 299 297 299 302 306 310 318 318 317 318 317 317 316 315 315 316 313 313 312 312 308 306 304 312 309 303 295 297 301 305 306 309 307 309 309 310
294 294 294 294 297 299 301 299 297 296 299 304 306 312 316 316 317 315 316 316 314 315 316 314 314 313 312 309 310 300 303 308 311 304 295 292 295 302 306 309 309 308 307
293 293 295 293 293 296 297 299 296 296 297 299 302 305 314 315 315 315 315 315 314 314 315 313 313 314 311 310 309 305 304 305 305 307 304 296 296 292 296 301 303 303 303
Wind_Speed
8 6 7 12 13 15 14 14 14 14 14 13 12 10 9 8 8 8 8 8 9 9 8 9 9 14 16 16 16 15 15 14 13 12 12 11 12 13 12 9 8 14 14
3 8 8 9 12 12 12 13 13 13 13 13 12 11 10 10 9 9 10 9 10 10 10 10 11 16 17 17 16 15 14 13 13 11 11 9 10 12 13 7 9 14 15
5 9 10 7 9 11 12 11 11 11 12 12 12 11 11 11 10 10 11 11 12 12 12 13 14 17 17 17 16 14 12 13 12 11 11 11 12 11 13 8 14 14 16
6 9 10 8 9 11 12 12 11 12 13 13 12 12 12 12 12 12 13 13 14 13 14 15 15 17 17 16 16 15 11 14 10 10 11 11 12 14 14 14 16 16 16
6 7 8 6 9 12 12 11 12 12 13 13 13 13 13 13 14 14 13 14 14 15 16 17 17 17 17 18 16 14 13 12 9 11 9 10 10 14 17 17 16 15 14
7 7 7 8 10 12 13 13 13 13 13 13 13 14 14 15 13 13 12 12 14 16 18 17 18 18 18 18 18 15 14 13 10 10 10 10 12 16 17 16 13 15 14
9 7 8 8 11 12 13 14 14 15 14 14 14 13 14 13 12 11 11 12 14 17 18 16 18 18 19 18 18 16 13 9 8 10 10 12 11 17 19 20 18 17 18
9 8 9 9 9 12 13 12 14 15 15 14 14 13 13 14 13 12 13 12 13 17 18 16 19 20 20 20 16 13 11 9 9 10 11 10 15 19 22 22 21 20 20
9 9 9 10 11 11 11 9 11 13 13 13 13 13 12 12 12 12 11 10 14 17 17 18 19 21 21 22 21 16 12 10 11 8 10 8 15 21 22 21 22 22 22
10 11 12 11 11 12 13 12 10 11 11 11 11 10 10 9 10 10 8 9 12 16 18 21 22 22 21 18 16 15 12 6 10 10 8 8 16 22 24 22 21 21 22
11 13 12 13 12 13 13 12 11 11 11 11 10 11 9 9 11 11 8 4 9 14 19 22 23 23 23 16 14 13 8 4 9 7 6 9 15 21 23 24 21 19 20
16 14 13 14 14 14 11 13 14 13 12 12 13 13 11 11 9 7 2 2 2 8 14 24 26 25 16 7 6 7 5 2 6 7 6 9 17 21 23 23 23 22 19
19 15 16 15 16 14 12 9 8 7 9 9 15 14 12 8 6 6 4 4 5 10 1 1 11 10 12 7 5 3 2 2 3 5 8 9 16 20 23 23 23 23 20
22 20 18 17 16 16 9 10 9 8 10 10 12 15 10 8 8 7 5 5 7 5 5 3 6 8 8 9 8 4 3 2 2 2 7 8 16 21 24 24 23 22 22
24 23 21 17 15 16 15 9 11 8 10 12 12 14 11 10 8 7 7 6 7 7 7 8 8 10 6 9 7 6 5 5 5 3 5 8 14 18 23 23 25 23 22
22 24 23 19 16 15 16 16 10 10 12 12 12 13 16 11 9 9 8 7 10 8 6 8 9 8 12 7 7 7 7 8 6 5 4 5 10 16 20 24 25 24 23
20 22 23 21 17 15 15 16 12 9 9 10 13 16 16 14 13 12 9 9 11 11 11 9 8 9 8 9 10 7 4 6 5 5 5 6 7 10 16 19 21 21 22
23 24 22 19 20 16 13 11 10 9 9 10 10 12 17 16 15 13 11 8 9 11 9 8 10 9 10 12 9 9 6 4 7 7 5 6 6 7 10 18 19 20 20
23 24 23 22 20 21 16 10 10 13 11 10 10 12 17 17 16 13 10 9 11 10 11 10 10 13 10 10 8 7 6 6 5 5 6 5 7 4 7 10 15 15 17
24 25 21 18 21 20 14 12 8 11 10 10 9 10 14 13 14 13 9 11 11 10 10 9 13 10 13 10 7 9 6 5 5 6 7 6 7 8 7 8 8 7 12
20 23 24 21 21 17 13 12 12 10 11 10 9 15 15 13 15 14 10 12 12 13 14 13 11 13 9 11 10 6 5 4 6 4 5 6 7 6 8 6 6 5 4
20 23 22 21 19 15 13 13 11 12 13 12 11 13 14 15 16 14 13 13 14 12 14 13 12 8 5 11 10 8 4 2 0 3 4 5 8 6 7 7 8 8 6
19 21 21 23 21 16 15 11 13 15 12 12 10 10 12 15 16 17 16 14 15 14 14 17 14 13 10 8 14 10 8 8 5 1 2 4 7 7 6 7 7 8 7
20 19 22 21 21 16 17 11 12 12 16 14 13 11 13 17 19 17 18 16 16 13 17 16 16 13 13 13 5 3 6 9 9 3 1 1 2 4 7 4 5 6 6
20 21 20 22 21 20 18 15 9 10 12 14 14 17 16 15 17 18 18 19 17 13 17 19 18 17 12 13 11 4 6 7 12 6 5 2 2 1 1 6 6 6 6
21 21 19 21 22 20 20 21 16 13 13 14 17 14 12 12 13 18 18 18 18 17 19 18 18 20 14 11 13 9 9 10 11 10 8 5 6 2 1 4 5 5 5
Wind_Direction
210 195 194 205 197 187 184 186 186 188 192 189 183 189 200 208 216 226 231 244 247 249 243 245 214 187 180 177 163 157 156 157 146 141 138 130 123 125 126 131 145 116 116
179 187 178 198 190 195 195 189 187 190 190 192 195 196 203 212 221 222 225 230 239 244 241 236 210 187 185 175 163 162 156 146 138 140 133 126 126 128 133 152 116 116 115
198 186 186 205 190 194 195 196 193 191 200 210 209 208 211 213 218 225 226 219 232 237 240 234 206 188 187 176 157 152 145 139 138 146 156 153 144 140 138 138 120 128 122
207 195 196 180 206 208 203 200 205 205 204 209 211 214 216 214 216 221 225 222 225 231 234 231 208 186 185 171 150 148 148 140 138 144 182 156 148 154 148 140 132 129 123
207 204 203 195 214 209 211 218 215 208 205 208 219 219 220 221 222 224 223 229 223 226 228 232 201 186 180 162 143 142 144 133 135 185 166 162 156 152 153 142 135 131 127
210 218 191 211 216 223 221 216 218 215 209 213 215 221 225 223 224 224 223 229 226 224 223 222 197 180 176 154 145 144 138 137 159 180 172 141 170 153 149 140 128 115 116
220 214 222 223 225 226 228 232 222 213 215 216 215 219 232 237 229 224 228 234 232 223 219 213 188 180 171 148 144 146 137 146 197 169 164 165 150 151 145 132 124 118 116
238 229 223 220 235 229 232 237 220 218 216 220 227 222 229 233 226 225 232 243 236 216 210 195 176 174 159 140 142 147 129 183 192 167 156 163 137 149 142 132 124 119 116
251 249 235 227 224 231 234 227 217 208 219 217 219 226 221 223 221 220 226 238 239 204 200 181 166 160 151 149 156 138 144 181 176 162 159 142 157 149 141 134 129 120 110
253 252 245 236 233 231 224 219 218 207 204 217 212 217 219 218 210 216 231 233 244 206 185 166 161 148 137 128 130 138 126 172 165 162 154 140 157 147 137 131 123 119 115
270 260 254 246 236 239 232 222 211 208 205 202 208 207 208 225 212 209 214 237 228 205 184 166 158 135 117 117 116 101 118 152 163 161 154 140 158 144 136 128 126 121 110
311 282 264 263 249 242 231 232 221 214 212 215 213 209 217 221 217 216 188 288 54 194 194 173 150 127 116 120 106 89 109 103 149 162 135 151 156 147 136 129 124 119 119
334 313 296 266 254 250 242 232 227 215 212 215 217 215 210 216 204 199 183 189 129 90 122 356 128 113 125 118 92 60 73 156 154 161 130 142 152 145 136 130 129 128 131
360 341 319 295 266 248 245 235 232 227 216 207 216 210 207 201 202 196 180 155 142 117 115 129 102 109 120 112 129 135 200 195 224 146 145 144 147 144 136 137 135 136 145
7 358 346 317 284 265 240 238 230 218 224 220 207 208 209 210 198 194 174 156 136 140 138 131 125 130 125 130 152 150 186 155 165 134 141 149 160 149 146 142 140 141 135
357 358 355 347 315 284 267 238 238 226 228 224 217 209 209 216 206 194 175 170 145 146 145 135 145 159 142 148 160 166 179 144 142 141 113 148 159 158 150 144 141 142 142
358 354 356 350 338 311 285 266 241 246 226 230 219 216 205 205 203 189 178 182 163 159 152 134 142 150 150 142 175 159 187 136 128 129 125 150 146 149 151 142 141 143 141
357 356 353 352 347 333 303 272 259 246 237 238 228 217 211 201 200 195 185 176 173 164 161 150 153 144 162 156 172 156 151 131 135 133 132 139 139 160 149 142 142 143 148
357 350 346 346 345 341 317 290 262 255 241 230 240 228 212 204 198 191 186 171 170 161 167 172 168 155 155 162 158 140 138 145 141 139 146 131 126 112 152 124 128 139 144
353 351 348 343 341 338 331 313 276 252 242 230 228 226 221 205 192 193 182 169 173 164 162 174 176 165 156 152 141 139 137 132 153 156 147 137 144 136 124 119 123 134 148
354 354 346 346 342 339 334 332 321 293 255 231 225 222 225 203 196 187 177 170 177 170 168 172 161 163 147 146 128 88 74 106 145 156 155 147 141 132 124 112 117 136 120
345 350 346 342 339 340 339 324 324 313 295 245 225 221 210 206 194 188 178 179 174 174 163 164 164 151 142 174 154 132 141 93 128 179 173 162 144 135 128 120 131 132 125
339 342 338 333 330 332 335 336 335 326 313 290 227 215 214 204 194 186 183 181 176 175 169 163 168 176 162 184 172 155 157 182 141 347 203 157 151 150 128 133 137 138 135
331 335 328 328 324 324 328 327 338 319 310 307 290 224 213 207 205 185 183 177 177 181 179 174 171 176 170 168 173 160 193 141 165 144 339 75 151 141 144 117 148 142 146
327 330 320 323 315 319 314 312 315 310 307 303 299 282 207 204 205 190 182 171 180 185 181 176 177 174 181 168 175 150 169 168 186 153 143 144 29 123 159 160 159 155 157
316 323 312 310 311 309 310 304 307 307 314 311 301 293 262 200 196 192 186 179 179 181 181 180 181 180 176 193 181 173 184 173 173 161 160 153 145 147 104 164 173 169 162